Location: Eppenbrunn
(49.1158°N, 7.5601°E)
Time: 18:53:01
(UTC+00:00)

Iridium 4 Rocket - Pass Details

Date: 09 April 2020
Orbit: 585 x 904 km, 86.9° (Epoch: 24 May)

Event Time Altitude Azimuth Distance (km) Brightness Sun altitude
Rises 19:51:35 0° 2° (N) 2,860 6.9 -15.5°
Reaches altitude 10° 19:53:54 10° 9° (N) 1,934 5.9 -15.9°
Maximum altitude 19:57:54 42° 81° (E) 841 3.4 -16.4°
Enters shadow 19:59:09 33° 124° (SE) 999 3.5 -16.6°
